Regional Weather Roundup
Issued by NWS

Home | Current Version | Previous Version | Text Only | Print | Product List | Glossary Off
Versions: 1 2 3 4 5 6 7 8 9 10 11 12 13 14 15 16 17 18 19 20 21 22 23 24 25 26 27 28 29 30 31 32 33 34 35 36 37 38 39 40 41 42 43 44 45 46 47 48 49 50

002
ASUS45 KBOI 231210
RWRID

IDAHO REGIONAL WEATHER ROUNDUP
NATIONAL WEATHER SERVICE BOISE ID
600 AM MDT SUN JUL 23 2017

NOTE: "FAIR" INDICATES FEW OR NO CLOUDS BELOW 12000 FEET
WITH NO SIGNIFICANT WEATHER AND/OR OBSTRUCTIONS TO VISIBILITY

IDZ012-014-231300-
SOUTHWEST IDAHO


CITY           SKY/WX    TMP DP  RH WIND       PRES   REMARKS
BOISE          CLEAR     65  39  38 SE9       30.02R
CALDWELL       CLEAR     58  50  75 E3        30.01R
MOUNTAIN HOME  CLEAR     61  38  41 CALM      30.02R
$$

IDZ016-017-231300-
SOUTHCENTRAL IDAHO


CITY           SKY/WX    TMP DP  RH WIND       PRES   REMARKS
BURLEY         CLOUDY    62  47  57 E10       30.09R
JEROME         PTCLDY    63  42  46 CALM      30.09R
TWIN FALLS     LGT RAIN  71  43  36 E15       30.03F
$$

IDZ019>023-231300-
SOUTHEAST IDAHO


CITY           SKY/WX    TMP DP  RH WIND       PRES   REMARKS
IDAHO FALLS    CLOUDY    47  45  93 N6        30.16S
POCATELLO      PTCLDY    52  39  61 VRB3      30.14R
REXBURG        CLEAR     50  45  83 E5        30.18R
$$

IDZ006-010-011-018-031-032-231300-
CENTRAL IDAHO MOUNTAINS


CITY           SKY/WX    TMP DP  RH WIND       PRES   REMARKS
MCCALL         CLEAR     53  38  56 CALM      30.15R
HAILEY         CLEAR     55  36  47 NW12      30.20S
STANLEY          N/A     38  32  79 S3        30.29R
SALMON         NOT AVBL
CHALLIS        CLEAR     50  35  56 NW3       30.18R
$$

IDZ002-004-006-007-026-231300-
NORTHERN IDAHO


CITY           SKY/WX    TMP DP  RH WIND       PRES   REMARKS
LEWISTON       CLEAR     66  50  56 E5        29.99S
LOWELL           N/A     57  51  80 CALM      30.07S
COEUR D`ALENE  CLEAR     56  49  77 NE3       30.03S
MULLAN PASS    CLEAR     60  40  47 NW5       30.22F
$$




USA.gov is the U.S. government's official web portal to all federal, state and local government web resources and services.